TimeCDT,TemperatureF,Dew PointF,Humidity,Sea Level PressureIn,VisibilityMPH,Wind Direction,Wind SpeedMPH,Gust SpeedMPH,PrecipitationIn,Events,Conditions,WindDirDegrees,DateUTC
12:15 AM,62.4,59.9,91,30.05,10.0,Calm,Calm,-,N/A,,Clear,0,2014-04-22 05:15:00
12:35 AM,61.7,58.5,89,30.05,10.0,Calm,Calm,-,N/A,,Clear,0,2014-04-22 05:35:00
12:55 AM,61.9,58.8,90,30.05,10.0,NW,3.5,-,N/A,,Clear,320,2014-04-22 05:55:00
1:15 AM,61.2,58.3,90,30.05,10.0,NW,5.8,-,N/A,,Clear,320,2014-04-22 06:15:00
1:35 AM,60.3,57.4,90,30.05,10.0,NW,5.8,-,N/A,,Clear,320,2014-04-22 06:35:00
1:55 AM,60.6,57.4,89,30.04,10.0,NW,5.8,-,N/A,,Clear,320,2014-04-22 06:55:00
2:15 AM,60.3,57.9,92,30.04,10.0,NNW,5.8,-,N/A,,Clear,330,2014-04-22 07:15:00
2:35 AM,61.2,58.3,90,30.04,10.0,NNW,5.8,-,N/A,,Clear,340,2014-04-22 07:35:00
2:55 AM,60.1,57.7,92,30.04,10.0,NNW,5.8,-,N/A,,Clear,340,2014-04-22 07:55:00
3:15 AM,59.0,57.2,94,30.04,10.0,Calm,Calm,-,N/A,,Clear,0,2014-04-22 08:15:00
3:35 AM,58.3,56.7,94,30.04,10.0,Calm,Calm,-,N/A,,Clear,0,2014-04-22 08:35:00
3:55 AM,57.7,56.3,95,30.05,10.0,NW,4.6,-,N/A,,Clear,320,2014-04-22 08:55:00
4:15 AM,57.6,56.7,97,30.05,10.0,NNW,6.9,-,N/A,,Clear,340,2014-04-22 09:15:00
4:35 AM,57.6,56.5,96,30.05,10.0,NNW,6.9,-,N/A,,Clear,330,2014-04-22 09:35:00
4:55 AM,59.0,57.2,94,30.05,10.0,NNW,5.8,-,N/A,,Clear,330,2014-04-22 09:55:00
5:15 AM,58.1,56.7,95,30.05,10.0,NNW,6.9,-,N/A,,Clear,340,2014-04-22 10:15:00
5:35 AM,57.2,56.3,97,30.05,7.0,NNW,6.9,-,N/A,,Clear,340,2014-04-22 10:35:00
5:55 AM,57.2,56.1,96,30.05,10.0,NNW,6.9,-,N/A,,Clear,340,2014-04-22 10:55:00
6:15 AM,58.1,56.5,94,30.06,10.0,NNW,6.9,-,N/A,,Clear,330,2014-04-22 11:15:00
6:35 AM,58.3,56.5,94,30.07,10.0,NNW,5.8,-,N/A,,Clear,340,2014-04-22 11:35:00
6:55 AM,58.5,56.3,93,30.07,10.0,NNW,9.2,-,N/A,,Clear,330,2014-04-22 11:55:00
7:15 AM,58.1,56.3,94,30.09,10.0,NNW,6.9,-,N/A,,Clear,330,2014-04-22 12:15:00
7:35 AM,59.0,56.8,93,30.10,10.0,NNW,8.1,-,N/A,,Clear,330,2014-04-22 12:35:00
7:55 AM,59.5,57.2,92,30.10,10.0,NNW,9.2,-,N/A,,Clear,340,2014-04-22 12:55:00
8:15 AM,60.8,58.1,91,30.10,7.0,NNW,9.2,-,N/A,,Clear,340,2014-04-22 13:15:00
8:35 AM,62.2,58.8,89,30.10,10.0,North,9.2,-,N/A,,Clear,360,2014-04-22 13:35:00
8:55 AM,63.1,59.0,86,30.10,10.0,North,8.1,-,N/A,,Clear,360,2014-04-22 13:55:00
9:15 AM,64.2,59.4,84,30.11,10.0,North,6.9,-,N/A,,Clear,350,2014-04-22 14:15:00
9:35 AM,66.4,60.6,82,30.11,10.0,North,4.6,-,N/A,,Clear,360,2014-04-22 14:35:00
9:55 AM,67.5,59.9,77,30.11,10.0,North,8.1,-,N/A,,Clear,10,2014-04-22 14:55:00
10:15 AM,69.1,59.9,72,30.11,10.0,NE,9.2,-,N/A,,Clear,40,2014-04-22 15:15:00
10:35 AM,70.5,59.9,69,30.11,7.0,NNE,10.4,-,N/A,,Light Drizzle,30,2014-04-22 15:35:00
10:55 AM,71.8,60.3,67,30.11,10.0,NNE,8.1,-,N/A,,Clear,20,2014-04-22 15:55:00
11:15 AM,72.1,59.9,65,30.11,10.0,ENE,9.2,-,N/A,,Clear,60,2014-04-22 16:15:00
11:35 AM,71.8,58.6,63,30.11,10.0,NE,9.2,-,N/A,,Clear,40,2014-04-22 16:35:00
11:55 AM,73.4,59.4,61,30.10,10.0,NE,5.8,-,N/A,,Clear,40,2014-04-22 16:55:00
12:15 PM,73.8,58.3,58,30.10,10.0,ENE,5.8,-,N/A,,Scattered Clouds,70,2014-04-22 17:15:00
12:35 PM,73.6,58.1,58,30.09,10.0,ENE,5.8,-,N/A,,Scattered Clouds,70,2014-04-22 17:35:00
12:55 PM,74.8,59.2,58,30.08,10.0,ENE,6.9,-,N/A,,Clear,60,2014-04-22 17:55:00
1:15 PM,74.7,58.3,57,30.07,10.0,ENE,5.8,-,N/A,,Clear,70,2014-04-22 18:15:00
1:35 PM,76.1,58.3,54,30.07,10.0,ENE,5.8,-,N/A,,Clear,60,2014-04-22 18:35:00
1:55 PM,75.2,57.4,54,30.06,10.0,SE,4.6,-,N/A,,Clear,140,2014-04-22 18:55:00
2:15 PM,76.3,57.2,52,30.05,10.0,East,6.9,-,N/A,,Clear,90,2014-04-22 19:15:00
2:35 PM,76.6,57.9,52,30.05,10.0,Calm,Calm,-,N/A,,Clear,0,2014-04-22 19:35:00
2:55 PM,76.3,57.0,51,30.05,10.0,SE,4.6,-,N/A,,Clear,130,2014-04-22 19:55:00
3:15 PM,77.0,56.5,49,30.04,10.0,Calm,Calm,-,N/A,,Clear,0,2014-04-22 20:15:00
3:35 PM,77.0,56.3,49,30.02,10.0,Calm,Calm,-,N/A,,Scattered Clouds,0,2014-04-22 20:35:00
3:55 PM,78.3,55.8,46,30.01,10.0,ENE,3.5,-,N/A,,Scattered Clouds,60,2014-04-22 20:55:00
4:15 PM,77.7,55.4,46,30.00,10.0,Calm,Calm,-,N/A,,Clear,0,2014-04-22 21:15:00
4:35 PM,78.3,54.0,43,30.00,10.0,Calm,Calm,-,N/A,,Clear,0,2014-04-22 21:35:00
4:55 PM,79.0,52.3,39,29.99,10.0,ENE,4.6,-,N/A,,Clear,60,2014-04-22 21:55:00
5:15 PM,78.8,51.1,38,29.99,10.0,NE,4.6,-,N/A,,Clear,50,2014-04-22 22:15:00
5:35 PM,78.6,50.7,38,29.98,10.0,Calm,Calm,-,N/A,,Clear,0,2014-04-22 22:35:00
5:55 PM,78.3,50.9,38,29.98,10.0,ENE,3.5,-,N/A,,Clear,70,2014-04-22 22:55:00
6:15 PM,78.1,52.0,40,29.97,10.0,East,4.6,-,N/A,,Clear,80,2014-04-22 23:15:00
6:35 PM,77.9,52.0,40,29.97,7.0,East,5.8,-,N/A,,Clear,80,2014-04-22 23:35:00
6:55 PM,77.4,53.1,43,29.96,7.0,ENE,3.5,-,N/A,,Clear,70,2014-04-22 23:55:00
7:15 PM,76.3,54.1,46,29.96,10.0,Calm,Calm,-,N/A,,Clear,0,2014-04-23 00:15:00
7:35 PM,74.3,55.2,51,29.96,10.0,Calm,Calm,-,N/A,,Clear,0,2014-04-23 00:35:00
7:55 PM,72.7,54.5,53,29.96,10.0,Calm,Calm,-,N/A,,Clear,0,2014-04-23 00:55:00
8:15 PM,71.2,52.9,52,29.97,10.0,East,4.6,-,N/A,,Clear,100,2014-04-23 01:15:00
8:35 PM,70.3,53.2,55,29.97,10.0,ESE,3.5,-,N/A,,Clear,110,2014-04-23 01:35:00
8:55 PM,68.0,53.6,60,29.97,7.0,South,3.5,-,N/A,,Clear,190,2014-04-23 01:55:00
9:15 PM,66.7,53.1,61,29.97,10.0,Calm,Calm,-,N/A,,Clear,0,2014-04-23 02:15:00
9:35 PM,66.9,52.7,60,29.98,10.0,Calm,Calm,-,N/A,,Clear,0,2014-04-23 02:35:00
9:55 PM,66.9,52.3,59,29.98,10.0,Calm,Calm,-,N/A,,Clear,0,2014-04-23 02:55:00
10:15 PM,66.4,52.3,61,29.98,10.0,Calm,Calm,-,N/A,,Clear,0,2014-04-23 03:15:00
10:35 PM,65.8,52.0,61,29.98,10.0,Calm,Calm,-,N/A,,Clear,0,2014-04-23 03:35:00
10:55 PM,64.9,51.3,61,29.98,10.0,Calm,Calm,-,N/A,,Clear,0,2014-04-23 03:55:00
11:15 PM,64.0,51.4,64,29.98,10.0,Calm,Calm,-,N/A,,Clear,0,2014-04-23 04:15:00
11:35 PM,63.7,50.7,63,29.98,10.0,Calm,Calm,-,N/A,,Clear,0,2014-04-23 04:35:00
11:55 PM,63.0,50.5,64,29.98,10.0,Calm,Calm,-,N/A,,Clear,0,2014-04-23 04:55:00